Time,TemperatureF,DewpointF,PressureIn,WindDirection,WindDirectionDegrees,WindSpeedMPH,WindSpeedGustMPH,Humidity,HourlyPrecipIn,Conditions,Clouds,dailyrainin,SoftwareType,DateUTC
2013-07-05 00:01:00,74.9,61.5,29.88,ESE,113,1.8,2.9,63,0.00,,,0.00,WUHU216HW,2013-07-05 05:01:00,
2013-07-05 00:06:00,74.7,61.3,29.88,ESE,113,2.0,2.7,63,0.00,,,0.00,WUHU216HW,2013-07-05 05:06:00,
2013-07-05 00:11:00,74.7,60.9,29.88,ESE,113,1.3,2.7,62,0.00,,,0.00,WUHU216HW,2013-07-05 05:11:00,
2013-07-05 00:16:00,74.5,60.7,29.88,SE,135,1.1,2.5,62,0.00,,,0.00,WUHU216HW,2013-07-05 05:16:00,
2013-07-05 00:21:00,74.5,60.7,29.88,SE,135,2.0,2.5,62,0.00,,,0.00,WUHU216HW,2013-07-05 05:21:00,
2013-07-05 00:26:00,74.5,61.6,29.88,ESE,113,2.5,2.9,64,0.00,,,0.00,WUHU216HW,2013-07-05 05:26:00,
2013-07-05 00:31:00,74.2,61.2,29.88,SE,135,2.5,3.6,64,0.00,,,0.00,WUHU216HW,2013-07-05 05:31:00,
2013-07-05 00:36:00,74.2,60.8,29.88,SE,135,2.0,4.0,63,0.00,,,0.00,WUHU216HW,2013-07-05 05:36:00,
2013-07-05 00:41:00,74.2,60.8,29.88,SE,135,1.6,4.0,63,0.00,,,0.00,WUHU216HW,2013-07-05 05:41:00,
2013-07-05 00:46:00,74.2,61.2,29.88,SE,135,2.2,4.0,64,0.00,,,0.00,WUHU216HW,2013-07-05 05:46:00,
2013-07-05 00:51:00,74.2,60.8,29.88,SE,135,2.5,3.1,63,0.00,,,0.00,WUHU216HW,2013-07-05 05:51:00,
2013-07-05 00:56:00,74.0,60.6,29.88,SE,135,2.0,3.4,63,0.00,,,0.00,WUHU216HW,2013-07-05 05:56:00,
2013-07-05 01:01:00,73.8,60.4,29.88,SE,135,1.3,3.4,63,0.00,,,0.00,WUHU216HW,2013-07-05 06:01:00,
2013-07-05 01:06:00,73.8,60.4,29.88,SE,135,1.6,2.5,63,0.00,,,0.00,WUHU216HW,2013-07-05 06:06:00,
2013-07-05 01:11:00,73.4,60.0,29.88,South,180,1.1,2.5,63,0.00,,,0.00,WUHU216HW,2013-07-05 06:11:00,
2013-07-05 01:16:00,73.3,59.9,29.88,SE,135,1.6,2.2,63,0.00,,,0.00,WUHU216HW,2013-07-05 06:16:00,
2013-07-05 01:21:00,73.3,60.3,29.87,SE,135,1.6,2.5,64,0.00,,,0.00,WUHU216HW,2013-07-05 06:21:00,
2013-07-05 01:26:00,73.1,60.1,29.87,SE,135,1.8,2.5,64,0.00,,,0.00,WUHU216HW,2013-07-05 06:26:00,
2013-07-05 01:31:00,72.9,59.9,29.87,SE,135,1.8,2.9,64,0.00,,,0.00,WUHU216HW,2013-07-05 06:31:00,
2013-07-05 01:36:00,72.7,59.8,29.87,SSE,158,1.8,2.9,64,0.00,,,0.00,WUHU216HW,2013-07-05 06:36:00,
2013-07-05 01:41:00,72.5,60.0,29.87,SSE,158,1.1,2.5,65,0.00,,,0.00,WUHU216HW,2013-07-05 06:41:00,
2013-07-05 01:46:00,72.4,60.3,29.87,SSE,158,2.5,2.5,66,0.00,,,0.00,WUHU216HW,2013-07-05 06:46:00,
2013-07-05 01:51:00,72.4,60.3,29.87,South,180,1.8,2.9,66,0.00,,,0.00,WUHU216HW,2013-07-05 06:51:00,
2013-07-05 01:56:00,72.2,60.2,29.88,SSW,203,3.4,3.4,66,0.00,,,0.00,WUHU216HW,2013-07-05 06:56:00,
2013-07-05 02:01:00,72.0,60.4,29.88,South,180,2.2,4.0,67,0.00,,,0.00,WUHU216HW,2013-07-05 07:01:00,
2013-07-05 02:06:00,71.8,60.3,29.88,SSW,203,0.4,4.0,67,0.00,,,0.00,WUHU216HW,2013-07-05 07:06:00,
2013-07-05 02:11:00,71.8,60.3,29.88,SSW,203,0.9,2.2,67,0.00,,,0.00,WUHU216HW,2013-07-05 07:11:00,
2013-07-05 02:16:00,71.6,59.7,29.88,SSW,203,0.0,1.1,66,0.00,,,0.00,WUHU216HW,2013-07-05 07:16:00,
2013-07-05 02:21:00,71.6,60.1,29.88,SSW,203,1.1,1.1,67,0.00,,,0.00,WUHU216HW,2013-07-05 07:21:00,
2013-07-05 02:26:00,71.5,60.0,29.88,SW,225,1.6,1.6,67,0.00,,,0.00,WUHU216HW,2013-07-05 07:26:00,
2013-07-05 02:31:00,71.5,60.0,29.88,West,270,1.6,1.8,67,0.00,,,0.00,WUHU216HW,2013-07-05 07:31:00,
2013-07-05 02:36:00,71.3,59.8,29.88,WSW,248,2.5,2.9,67,0.00,,,0.00,WUHU216HW,2013-07-05 07:36:00,
2013-07-05 02:41:00,70.9,60.2,29.88,WSW,248,1.8,3.4,69,0.00,,,0.00,WUHU216HW,2013-07-05 07:41:00,
2013-07-05 02:46:00,70.9,60.7,29.88,SSW,203,2.5,3.4,70,0.00,,,0.00,WUHU216HW,2013-07-05 07:46:00,
2013-07-05 02:51:00,70.7,60.5,29.88,SW,225,2.5,3.8,70,0.00,,,0.00,WUHU216HW,2013-07-05 07:51:00,
2013-07-05 02:56:00,70.7,60.5,29.88,SSW,203,2.5,4.0,70,0.00,,,0.00,WUHU216HW,2013-07-05 07:56:00,
2013-07-05 03:01:00,70.7,60.8,29.88,SW,225,2.5,4.0,71,0.00,,,0.00,WUHU216HW,2013-07-05 08:01:00,
2013-07-05 03:06:00,70.6,60.7,29.88,WSW,248,1.6,3.1,71,0.00,,,0.00,WUHU216HW,2013-07-05 08:06:00,
2013-07-05 03:11:00,70.2,60.3,29.88,WSW,248,1.8,2.7,71,0.00,,,0.00,WUHU216HW,2013-07-05 08:11:00,
2013-07-05 03:16:00,70.2,59.9,29.88,SSW,203,1.6,2.2,70,0.00,,,0.00,WUHU216HW,2013-07-05 08:16:00,
2013-07-05 03:21:00,70.2,59.9,29.88,SSW,203,3.4,3.4,70,0.00,,,0.00,WUHU216HW,2013-07-05 08:21:00,
2013-07-05 03:26:00,70.2,59.9,29.87,South,180,3.6,4.7,70,0.00,,,0.00,WUHU216HW,2013-07-05 08:26:00,
2013-07-05 03:31:00,70.6,59.9,29.87,SSE,158,3.4,4.7,69,0.00,,,0.00,WUHU216HW,2013-07-05 08:31:00,
2013-07-05 03:36:00,70.7,60.0,29.87,SSW,203,3.4,5.6,69,0.00,,,0.00,WUHU216HW,2013-07-05 08:36:00,
2013-07-05 03:41:00,70.9,59.9,29.87,South,180,2.9,5.6,68,0.00,,,0.00,WUHU216HW,2013-07-05 08:41:00,
2013-07-05 03:46:00,71.1,59.6,29.87,SSE,158,0.4,3.6,67,0.00,,,0.00,WUHU216HW,2013-07-05 08:46:00,
2013-07-05 03:51:00,71.1,59.6,29.87,WSW,248,1.3,3.4,67,0.00,,,0.00,WUHU216HW,2013-07-05 08:51:00,
2013-07-05 03:56:00,70.9,59.4,29.87,WSW,248,1.3,3.1,67,0.00,,,0.00,WUHU216HW,2013-07-05 08:56:00,
2013-07-05 04:01:00,70.7,59.7,29.87,SSW,203,0.7,1.8,68,0.00,,,0.00,WUHU216HW,2013-07-05 09:01:00,
2013-07-05 04:06:00,70.4,59.3,29.87,SW,225,1.3,1.8,68,0.00,,,0.00,WUHU216HW,2013-07-05 09:06:00,
2013-07-05 04:11:00,70.4,59.3,29.87,SSW,203,0.7,2.9,68,0.00,,,0.00,WUHU216HW,2013-07-05 09:11:00,
2013-07-05 04:16:00,70.4,58.9,29.87,SSW,203,0.9,2.9,67,0.00,,,0.00,WUHU216HW,2013-07-05 09:16:00,
2013-07-05 04:21:00,70.4,58.9,29.87,WSW,248,1.1,2.0,67,0.00,,,0.00,WUHU216HW,2013-07-05 09:21:00,
2013-07-05 04:26:00,70.4,58.9,29.87,SW,225,1.3,1.8,67,0.00,,,0.00,WUHU216HW,2013-07-05 09:26:00,
2013-07-05 04:31:00,70.4,58.9,29.87,SW,225,1.1,1.8,67,0.00,,,0.00,WUHU216HW,2013-07-05 09:31:00,
2013-07-05 04:37:00,70.4,58.9,29.87,SW,225,0.7,1.8,67,0.00,,,0.00,WUHU216HW,2013-07-05 09:37:00,
2013-07-05 04:42:00,70.2,58.7,29.87,SSW,203,0.9,1.8,67,0.00,,,0.00,WUHU216HW,2013-07-05 09:42:00,
2013-07-05 04:47:00,70.2,58.7,29.87,South,180,1.6,1.8,67,0.00,,,0.00,WUHU216HW,2013-07-05 09:47:00,
2013-07-05 04:52:00,70.0,58.5,29.87,SSE,158,1.1,1.6,67,0.00,,,0.00,WUHU216HW,2013-07-05 09:52:00,
2013-07-05 04:57:00,70.0,58.5,29.87,SE,135,1.6,2.0,67,0.00,,,0.00,WUHU216HW,2013-07-05 09:57:00,
2013-07-05 05:03:00,70.0,58.5,29.87,SSE,158,1.1,2.0,67,0.00,,,0.00,WUHU216HW,2013-07-05 10:03:00,
2013-07-05 05:08:00,70.0,58.5,29.87,SSW,203,0.7,1.3,67,0.00,,,0.00,WUHU216HW,2013-07-05 10:08:00,
2013-07-05 05:13:00,70.2,58.7,29.87,South,180,1.3,2.2,67,0.00,,,0.00,WUHU216HW,2013-07-05 10:13:00,
2013-07-05 05:18:00,70.2,58.7,29.87,SSW,203,1.8,2.2,67,0.00,,,0.00,WUHU216HW,2013-07-05 10:18:00,
2013-07-05 05:23:00,70.2,58.7,29.87,SSW,203,2.0,3.4,67,0.00,,,0.00,WUHU216HW,2013-07-05 10:23:00,
2013-07-05 05:28:00,70.0,58.5,29.87,South,180,1.6,3.4,67,0.00,,,0.00,WUHU216HW,2013-07-05 10:28:00,
2013-07-05 05:33:00,69.8,58.3,29.87,South,180,1.6,2.5,67,0.00,,,0.00,WUHU216HW,2013-07-05 10:33:00,
2013-07-05 05:38:00,69.8,58.3,29.87,SSE,158,1.6,1.8,67,0.00,,,0.00,WUHU216HW,2013-07-05 10:38:00,
2013-07-05 05:43:00,69.8,58.3,29.87,South,180,1.6,1.8,67,0.00,,,0.00,WUHU216HW,2013-07-05 10:43:00,
2013-07-05 05:48:00,69.7,58.6,29.87,SSW,203,1.6,2.2,68,0.00,,,0.00,WUHU216HW,2013-07-05 10:48:00,
2013-07-05 05:54:00,69.5,58.4,29.87,SSE,158,1.6,2.2,68,0.00,,,0.00,WUHU216HW,2013-07-05 10:54:00,
2013-07-05 05:59:00,69.5,58.4,29.87,SE,135,0.7,2.2,68,0.00,,,0.00,WUHU216HW,2013-07-05 10:59:00,
2013-07-05 06:04:00,69.3,58.2,29.87,SSE,158,1.1,1.8,68,0.00,,,0.00,WUHU216HW,2013-07-05 11:04:00,
2013-07-05 06:09:00,69.3,58.7,29.87,SSE,158,0.2,1.6,69,0.00,,,0.00,WUHU216HW,2013-07-05 11:09:00,
2013-07-05 06:14:00,69.3,58.7,29.87,SSE,158,0.4,1.1,69,0.00,,,0.00,WUHU216HW,2013-07-05 11:14:00,
2013-07-05 06:19:00,69.1,58.5,29.87,South,180,0.0,1.1,69,0.00,,,0.00,WUHU216HW,2013-07-05 11:19:00,
2013-07-05 06:25:00,69.1,58.5,29.88,South,180,0.0,0.7,69,0.00,,,0.00,WUHU216HW,2013-07-05 11:25:00,
2013-07-05 06:30:00,69.1,59.0,29.88,South,180,0.0,0.2,70,0.00,,,0.00,WUHU216HW,2013-07-05 11:30:00,
2013-07-05 06:35:00,69.1,59.0,29.88,SE,135,0.4,1.1,70,0.00,,,0.00,WUHU216HW,2013-07-05 11:35:00,
2013-07-05 06:40:00,68.8,59.8,29.88,ESE,113,1.1,1.6,73,0.00,,,0.00,WUHU216HW,2013-07-05 11:40:00,
2013-07-05 06:45:00,68.2,59.7,29.89,NE,45,2.9,2.9,74,0.00,,,0.00,WUHU216HW,2013-07-05 11:45:00,
2013-07-05 06:50:00,68.0,59.5,29.89,NE,45,1.8,2.9,74,0.00,,,0.00,WUHU216HW,2013-07-05 11:50:00,
2013-07-05 06:55:00,68.6,60.3,29.89,NE,45,0.9,2.9,75,0.00,,,0.00,WUHU216HW,2013-07-05 11:55:00,
2013-07-05 07:00:00,69.1,60.5,29.89,NE,45,0.9,2.2,74,0.00,,,0.00,WUHU216HW,2013-07-05 12:00:00,
2013-07-05 07:05:00,69.8,60.8,29.89,NE,45,1.1,1.8,73,0.00,,,0.00,WUHU216HW,2013-07-05 12:05:00,
2013-07-05 07:10:00,70.2,60.7,29.89,NE,45,1.1,1.8,72,0.00,,,0.00,WUHU216HW,2013-07-05 12:10:00,
2013-07-05 07:15:00,70.7,61.2,29.89,SE,135,1.1,1.6,72,0.00,,,0.00,WUHU216HW,2013-07-05 12:15:00,
2013-07-05 07:21:00,71.6,61.7,29.89,SE,135,2.2,2.2,71,0.00,,,0.00,WUHU216HW,2013-07-05 12:21:00,
2013-07-05 07:23:00,72.4,62.5,29.89,ESE,113,1.6,2.7,71,0.00,,,0.00,WUHU216HW,2013-07-05 12:23:00,
2013-07-05 07:26:00,72.4,62.5,29.89,ESE,113,1.8,2.7,71,0.00,,,0.00,WUHU216HW,2013-07-05 12:26:00,
2013-07-05 07:29:00,72.4,62.5,29.90,East,90,2.2,2.5,71,0.00,,,0.00,WUHU216HW,2013-07-05 12:29:00,
2013-07-05 07:35:00,72.5,62.6,29.90,ESE,113,1.6,2.5,71,0.00,,,0.00,WUHU216HW,2013-07-05 12:35:00,
2013-07-05 07:41:00,73.4,63.2,29.90,SSE,158,3.4,3.4,70,0.00,,,0.00,WUHU216HW,2013-07-05 12:41:00,
2013-07-05 07:47:00,74.2,62.9,29.90,ESE,113,2.2,3.4,68,0.00,,,0.00,WUHU216HW,2013-07-05 12:47:00,
2013-07-05 07:53:00,75.1,63.4,29.90,SSE,158,2.2,4.0,67,0.00,,,0.00,WUHU216HW,2013-07-05 12:53:00,
2013-07-05 07:59:00,76.0,63.7,29.91,ESE,113,3.8,4.0,66,0.00,,,0.00,WUHU216HW,2013-07-05 12:59:00,
2013-07-05 08:11:00,76.7,63.5,29.91,ESE,113,3.6,3.8,64,0.00,,,0.00,WUHU216HW,2013-07-05 13:11:00,
2013-07-05 08:16:00,76.9,63.7,29.91,ESE,113,2.0,4.0,64,0.00,,,0.00,WUHU216HW,2013-07-05 13:16:00,
2013-07-05 08:22:00,77.2,63.6,29.91,ESE,113,2.2,4.0,63,0.00,,,0.00,WUHU216HW,2013-07-05 13:22:00,
2013-07-05 08:27:00,77.4,64.7,29.91,East,90,3.4,3.4,65,0.00,,,0.00,WUHU216HW,2013-07-05 13:27:00,
2013-07-05 08:32:00,78.1,65.0,29.91,East,90,2.7,3.6,64,0.00,,,0.00,WUHU216HW,2013-07-05 13:32:00,
2013-07-05 08:38:00,79.2,65.5,29.91,SSE,158,1.8,3.6,63,0.00,,,0.00,WUHU216HW,2013-07-05 13:38:00,
2013-07-05 08:43:00,81.0,66.8,29.91,SSE,158,1.1,3.4,62,0.00,,,0.00,WUHU216HW,2013-07-05 13:43:00,
2013-07-05 08:48:00,82.1,66.3,29.91,SSE,158,1.8,3.6,59,0.00,,,0.00,WUHU216HW,2013-07-05 13:48:00,
2013-07-05 08:53:00,82.8,66.4,29.91,SE,135,3.1,4.7,58,0.00,,,0.00,WUHU216HW,2013-07-05 13:53:00,
2013-07-05 08:58:00,82.3,66.0,29.91,SE,135,2.5,4.7,58,0.00,,,0.00,WUHU216HW,2013-07-05 13:58:00,
2013-07-05 09:03:00,82.8,66.4,29.91,SE,135,1.8,4.7,58,0.00,,,0.00,WUHU216HW,2013-07-05 14:03:00,
2013-07-05 09:08:00,83.7,67.9,29.91,South,180,2.0,4.7,59,0.00,,,0.00,WUHU216HW,2013-07-05 14:08:00,
2013-07-05 09:13:00,84.6,68.2,29.91,SSW,203,1.1,2.9,58,0.00,,,0.00,WUHU216HW,2013-07-05 14:13:00,
2013-07-05 09:18:00,85.5,68.5,29.91,South,180,4.0,4.0,57,0.00,,,0.00,WUHU216HW,2013-07-05 14:18:00,
2013-07-05 09:23:00,86.2,68.7,29.91,SSW,203,3.4,5.6,56,0.00,,,0.00,WUHU216HW,2013-07-05 14:23:00,
2013-07-05 09:28:00,86.9,68.8,29.91,South,180,2.5,5.6,55,0.00,,,0.00,WUHU216HW,2013-07-05 14:28:00,
2013-07-05 09:33:00,87.7,68.4,29.91,SW,225,3.6,4.7,53,0.00,,,0.00,WUHU216HW,2013-07-05 14:33:00,
2013-07-05 09:38:00,88.0,68.8,29.92,South,180,3.1,5.1,53,0.00,,,0.00,WUHU216HW,2013-07-05 14:38:00,
2013-07-05 09:43:00,88.6,68.1,29.91,South,180,6.5,6.5,51,0.00,,,0.00,WUHU216HW,2013-07-05 14:43:00,
2013-07-05 09:48:00,88.9,68.0,29.91,SW,225,6.0,6.9,50,0.00,,,0.00,WUHU216HW,2013-07-05 14:48:00,
2013-07-05 09:53:00,89.1,68.1,29.91,SSE,158,4.3,6.9,50,0.00,,,0.00,WUHU216HW,2013-07-05 14:53:00,
2013-07-05 09:59:00,89.3,68.2,29.91,SSW,203,4.9,6.9,50,0.00,,,0.00,WUHU216HW,2013-07-05 14:59:00,
2013-07-05 10:04:00,89.6,68.6,29.91,South,180,3.4,6.9,50,0.00,,,0.00,WUHU216HW,2013-07-05 15:04:00,
2013-07-05 10:09:00,90.4,68.6,29.91,SW,225,3.1,6.3,49,0.00,,,0.00,WUHU216HW,2013-07-05 15:09:00,
2013-07-05 10:14:00,90.7,68.2,29.91,SSW,203,4.3,6.7,48,0.00,,,0.00,WUHU216HW,2013-07-05 15:14:00,
2013-07-05 10:19:00,91.3,68.8,29.91,WSW,248,5.4,6.7,48,0.00,,,0.00,WUHU216HW,2013-07-05 15:19:00,
2013-07-05 10:24:00,91.6,69.0,29.91,SSE,158,2.0,5.6,48,0.00,,,0.00,WUHU216HW,2013-07-05 15:24:00,
2013-07-05 10:29:00,92.0,68.8,29.91,SSW,203,4.0,7.6,47,0.00,,,0.00,WUHU216HW,2013-07-05 15:29:00,
2013-07-05 10:34:00,92.2,68.2,29.91,South,180,5.4,7.6,46,0.00,,,0.00,WUHU216HW,2013-07-05 15:34:00,
2013-07-05 10:39:00,92.2,68.2,29.91,SW,225,2.9,6.9,46,0.00,,,0.00,WUHU216HW,2013-07-05 15:39:00,
2013-07-05 10:44:00,92.5,69.2,29.91,SW,225,1.8,6.9,47,0.00,,,0.00,WUHU216HW,2013-07-05 15:44:00,
2013-07-05 10:49:00,93.2,69.2,29.91,South,180,2.5,7.2,46,0.00,,,0.00,WUHU216HW,2013-07-05 15:49:00,
2013-07-05 10:50:00,93.2,68.6,29.91,SSW,203,2.5,7.2,45,0.00,,,0.00,WUHU216HW,2013-07-05 15:50:00,
2013-07-05 10:55:00,93.8,69.1,29.91,SSW,203,4.0,7.2,45,0.00,,,0.00,WUHU216HW,2013-07-05 15:55:00,
2013-07-05 11:00:00,94.3,68.9,29.91,South,180,6.9,7.4,44,0.00,,,0.00,WUHU216HW,2013-07-05 16:00:00,
2013-07-05 11:05:00,94.3,68.9,29.91,SSE,158,2.9,7.4,44,0.00,,,0.00,WUHU216HW,2013-07-05 16:05:00,
2013-07-05 11:10:00,94.7,69.3,29.90,SSW,203,5.6,7.4,44,0.00,,,0.00,WUHU216HW,2013-07-05 16:10:00,
2013-07-05 11:15:00,94.9,68.8,29.91,SSW,203,4.9,7.4,43,0.00,,,0.00,WUHU216HW,2013-07-05 16:15:00,
2013-07-05 11:20:00,95.0,68.9,29.90,SSW,203,4.9,6.9,43,0.00,,,0.00,WUHU216HW,2013-07-05 16:20:00,
2013-07-05 11:25:00,95.4,68.6,29.90,SW,225,4.7,8.1,42,0.00,,,0.00,WUHU216HW,2013-07-05 16:25:00,
2013-07-05 11:30:00,95.8,68.9,29.90,SSW,203,3.4,8.1,42,0.00,,,0.00,WUHU216HW,2013-07-05 16:30:00,
2013-07-05 11:35:00,96.1,68.6,29.90,South,180,5.6,8.5,41,0.00,,,0.00,WUHU216HW,2013-07-05 16:35:00,
2013-07-05 11:40:00,96.1,68.6,29.90,SSW,203,6.9,8.5,41,0.00,,,0.00,WUHU216HW,2013-07-05 16:40:00,
2013-07-05 11:45:00,96.3,68.8,29.90,SE,135,5.4,7.8,41,0.00,,,0.00,WUHU216HW,2013-07-05 16:45:00,
2013-07-05 11:50:00,97.0,68.8,29.90,SW,225,4.0,7.8,40,0.00,,,0.00,WUHU216HW,2013-07-05 16:50:00,
2013-07-05 11:55:00,97.4,69.8,29.90,SSW,203,4.0,6.3,41,0.00,,,0.00,WUHU216HW,2013-07-05 16:55:00,
2013-07-05 12:00:00,97.6,69.2,29.89,SSW,203,4.7,4.9,40,0.00,,,0.00,WUHU216HW,2013-07-05 17:00:00,
2013-07-05 12:05:00,98.3,69.8,29.89,WSW,248,2.5,6.9,40,0.00,,,0.00,WUHU216HW,2013-07-05 17:05:00,
2013-07-05 12:10:00,98.6,68.6,29.89,SSW,203,8.1,8.1,38,0.00,,,0.00,WUHU216HW,2013-07-05 17:10:00,
2013-07-05 12:15:00,98.6,68.6,29.89,ESE,113,2.9,8.1,38,0.00,,,0.00,WUHU216HW,2013-07-05 17:15:00,
2013-07-05 12:20:00,99.0,68.9,29.89,West,270,4.5,8.1,38,0.00,,,0.00,WUHU216HW,2013-07-05 17:20:00,
2013-07-05 12:25:00,99.4,68.4,29.89,South,180,7.2,7.6,37,0.00,,,0.00,WUHU216HW,2013-07-05 17:25:00,
2013-07-05 12:30:00,99.4,69.2,29.89,SSW,203,4.5,8.9,38,0.00,,,0.00,WUHU216HW,2013-07-05 17:30:00,
2013-07-05 12:35:00,99.5,70.2,29.89,South,180,2.5,8.9,39,0.00,,,0.00,WUHU216HW,2013-07-05 17:35:00,
2013-07-05 12:40:00,99.7,67.9,29.89,WNW,293,1.6,6.3,36,0.00,,,0.00,WUHU216HW,2013-07-05 17:40:00,
2013-07-05 12:45:00,99.9,68.9,29.89,SSE,158,3.6,6.7,37,0.00,,,0.00,WUHU216HW,2013-07-05 17:45:00,
2013-07-05 12:50:00,100.3,67.5,29.88,South,180,4.7,6.7,35,0.00,,,0.00,WUHU216HW,2013-07-05 17:50:00,
2013-07-05 12:55:00,99.4,66.7,29.88,SSE,158,6.0,6.3,35,0.00,,,0.00,WUHU216HW,2013-07-05 17:55:00,
2013-07-05 13:00:00,99.4,63.4,29.88,ESE,113,2.7,7.6,31,0.00,,,0.00,WUHU216HW,2013-07-05 18:00:00,
2013-07-05 13:05:00,98.6,66.9,29.88,SSW,203,4.0,7.6,36,0.00,,,0.00,WUHU216HW,2013-07-05 18:05:00,
2013-07-05 13:10:00,99.4,67.5,29.87,WNW,293,2.5,6.9,36,0.00,,,0.00,WUHU216HW,2013-07-05 18:10:00,
2013-07-05 13:15:00,100.1,66.5,29.87,West,270,1.8,4.9,34,0.00,,,0.00,WUHU216HW,2013-07-05 18:15:00,
2013-07-05 13:20:00,100.4,67.7,29.87,SSW,203,5.1,8.1,35,0.00,,,0.00,WUHU216HW,2013-07-05 18:20:00,
2013-07-05 13:25:00,100.8,67.1,29.87,South,180,0.9,8.1,34,0.00,,,0.00,WUHU216HW,2013-07-05 18:25:00,
2013-07-05 13:30:00,101.2,67.5,29.86,ESE,113,0.9,5.8,34,0.00,,,0.00,WUHU216HW,2013-07-05 18:30:00,
2013-07-05 13:35:00,100.6,66.2,29.86,NNE,23,0.2,3.8,33,0.00,,,0.00,WUHU216HW,2013-07-05 18:35:00,
2013-07-05 13:40:00,100.6,66.2,29.86,NW,315,1.1,4.7,33,0.00,,,0.00,WUHU216HW,2013-07-05 18:40:00,
2013-07-05 13:45:00,101.2,67.5,29.86,South,180,3.6,6.5,34,0.00,,,0.00,WUHU216HW,2013-07-05 18:45:00,
2013-07-05 13:50:00,101.7,66.3,29.86,SSW,203,2.7,6.5,32,0.00,,,0.00,WUHU216HW,2013-07-05 18:50:00,
2013-07-05 13:55:00,101.2,66.6,29.86,WSW,248,4.0,8.5,33,0.00,,,0.00,WUHU216HW,2013-07-05 18:55:00,
2013-07-05 14:00:00,99.9,65.5,29.86,SE,135,4.5,8.5,33,0.00,,,0.00,WUHU216HW,2013-07-05 19:00:00,
2013-07-05 14:06:00,98.5,65.1,29.86,ESE,113,1.8,9.2,34,0.00,,,0.00,WUHU216HW,2013-07-05 19:06:00,
2013-07-05 14:11:00,98.5,65.9,29.85,SSE,158,6.3,9.8,35,0.00,,,0.00,WUHU216HW,2013-07-05 19:11:00,
2013-07-05 14:16:00,99.7,67.1,29.85,SE,135,4.0,9.8,35,0.00,,,0.00,WUHU216HW,2013-07-05 19:16:00,
2013-07-05 14:21:00,100.4,66.1,29.85,WNW,293,5.4,9.2,33,0.00,,,0.00,WUHU216HW,2013-07-05 19:21:00,
2013-07-05 14:26:00,100.1,63.2,29.85,SSE,158,2.0,9.2,30,0.00,,,0.00,WUHU216HW,2013-07-05 19:26:00,
2013-07-05 14:31:00,98.1,62.3,29.85,East,90,3.4,9.2,31,0.00,,,0.00,WUHU216HW,2013-07-05 19:31:00,
2013-07-05 14:36:00,98.6,62.7,29.84,SE,135,2.9,9.2,31,0.00,,,0.00,WUHU216HW,2013-07-05 19:36:00,
2013-07-05 14:41:00,99.4,64.3,29.85,South,180,4.0,6.5,32,0.00,,,0.00,WUHU216HW,2013-07-05 19:41:00,
2013-07-05 14:46:00,101.0,65.6,29.85,South,180,2.9,6.5,32,0.00,,,0.00,WUHU216HW,2013-07-05 19:46:00,
2013-07-05 14:51:00,101.2,61.8,29.85,East,90,2.5,5.1,28,0.00,,,0.00,WUHU216HW,2013-07-05 19:51:00,
2013-07-05 14:56:00,100.8,63.8,29.85,ENE,68,7.6,7.6,30,0.00,,,0.00,WUHU216HW,2013-07-05 19:56:00,
2013-07-05 15:01:00,99.0,63.1,29.84,SE,135,5.8,7.8,31,0.00,,,0.00,WUHU216HW,2013-07-05 20:01:00,
2013-07-05 15:06:00,99.4,62.6,29.84,East,90,7.2,7.8,30,0.00,,,0.00,WUHU216HW,2013-07-05 20:06:00,
2013-07-05 15:11:00,99.0,63.1,29.84,ESE,113,6.0,8.7,31,0.00,,,0.00,WUHU216HW,2013-07-05 20:11:00,
2013-07-05 15:16:00,99.0,62.3,29.84,ENE,68,4.3,8.7,30,0.00,,,0.00,WUHU216HW,2013-07-05 20:16:00,
2013-07-05 15:21:00,98.5,61.7,29.84,East,90,7.4,8.5,30,0.00,,,0.00,WUHU216HW,2013-07-05 20:21:00,
2013-07-05 15:26:00,98.5,62.6,29.83,SSE,158,1.8,8.5,31,0.00,,,0.00,WUHU216HW,2013-07-05 20:26:00,
2013-07-05 15:31:00,99.0,58.9,29.83,ENE,68,10.3,10.3,27,0.00,,,0.00,WUHU216HW,2013-07-05 20:31:00,
2013-07-05 15:36:00,98.1,60.3,29.83,East,90,8.9,11.6,29,0.00,,,0.00,WUHU216HW,2013-07-05 20:36:00,
2013-07-05 15:41:00,97.4,60.8,29.83,ENE,68,6.5,11.6,30,0.00,,,0.00,WUHU216HW,2013-07-05 20:41:00,
2013-07-05 15:46:00,97.2,61.5,29.83,ESE,113,6.0,8.9,31,0.00,,,0.00,WUHU216HW,2013-07-05 20:46:00,
2013-07-05 15:51:00,97.7,61.9,29.82,East,90,7.8,7.8,31,0.00,,,0.00,WUHU216HW,2013-07-05 20:51:00,
2013-07-05 15:56:00,97.9,62.1,29.82,ESE,113,8.5,10.7,31,0.00,,,0.00,WUHU216HW,2013-07-05 20:56:00,
2013-07-05 16:01:00,97.2,63.1,29.81,ESE,113,7.6,13.0,33,0.00,,,0.00,WUHU216HW,2013-07-05 21:01:00,
2013-07-05 16:06:00,96.1,61.4,29.81,East,90,4.7,13.0,32,0.00,,,0.00,WUHU216HW,2013-07-05 21:06:00,
2013-07-05 16:11:00,96.8,62.8,29.81,East,90,7.2,11.2,33,0.00,,,0.00,WUHU216HW,2013-07-05 21:11:00,
2013-07-05 16:16:00,97.9,62.9,29.81,SE,135,3.4,9.8,32,0.00,,,0.00,WUHU216HW,2013-07-05 21:16:00,
2013-07-05 16:21:00,99.7,63.7,29.81,SSE,158,4.3,9.6,31,0.00,,,0.00,WUHU216HW,2013-07-05 21:21:00,
2013-07-05 16:26:00,101.2,65.0,29.81,South,180,4.9,9.6,31,0.00,,,0.00,WUHU216HW,2013-07-05 21:26:00,
2013-07-05 16:31:00,101.9,63.5,29.80,ESE,113,4.0,6.9,29,0.00,,,0.00,WUHU216HW,2013-07-05 21:31:00,
2013-07-05 16:36:00,98.3,60.5,29.80,ESE,113,5.4,10.5,29,0.00,,,0.00,WUHU216HW,2013-07-05 21:36:00,
2013-07-05 16:41:00,96.8,58.2,29.80,NE,45,11.9,11.9,28,0.00,,,0.00,WUHU216HW,2013-07-05 21:41:00,
2013-07-05 16:46:00,96.8,60.3,29.80,East,90,8.9,11.9,30,0.00,,,0.00,WUHU216HW,2013-07-05 21:46:00,
2013-07-05 16:51:00,97.6,60.9,29.80,SSE,158,4.7,11.9,30,0.00,,,0.00,WUHU216HW,2013-07-05 21:51:00,
2013-07-05 16:56:00,98.6,60.9,29.80,SE,135,8.7,10.1,29,0.00,,,0.00,WUHU216HW,2013-07-05 21:56:00,
2013-07-05 17:01:00,98.3,60.5,29.80,East,90,6.3,9.4,29,0.00,,,0.00,WUHU216HW,2013-07-05 22:01:00,
2013-07-05 17:06:00,97.7,61.1,29.79,SSW,203,4.7,10.5,30,0.00,,,0.00,WUHU216HW,2013-07-05 22:06:00,
2013-07-05 17:11:00,98.8,58.8,29.79,SSE,158,1.8,10.5,27,0.00,,,0.00,WUHU216HW,2013-07-05 22:11:00,
2013-07-05 17:16:00,98.6,58.6,29.78,SSE,158,6.7,7.6,27,0.00,,,0.00,WUHU216HW,2013-07-05 22:16:00,
2013-07-05 17:21:00,98.1,60.3,29.78,ESE,113,5.4,10.5,29,0.00,,,0.00,WUHU216HW,2013-07-05 22:21:00,
2013-07-05 17:26:00,97.9,58.0,29.78,ESE,113,7.2,10.5,27,0.00,,,0.00,WUHU216HW,2013-07-05 22:26:00,
2013-07-05 17:31:00,96.7,59.0,29.78,ESE,113,3.6,9.4,29,0.00,,,0.00,WUHU216HW,2013-07-05 22:31:00,
2013-07-05 17:36:00,97.6,59.9,29.78,SSE,158,4.7,9.2,29,0.00,,,0.00,WUHU216HW,2013-07-05 22:36:00,
2013-07-05 17:41:00,97.7,60.0,29.78,SE,135,4.0,7.6,29,0.00,,,0.00,WUHU216HW,2013-07-05 22:41:00,
2013-07-05 17:46:00,96.7,60.1,29.78,ESE,113,7.6,7.6,30,0.00,,,0.00,WUHU216HW,2013-07-05 22:46:00,
2013-07-05 17:51:00,96.5,59.0,29.78,ESE,113,5.8,7.6,29,0.00,,,0.00,WUHU216HW,2013-07-05 22:51:00,
2013-07-05 17:56:00,96.5,57.8,29.78,ESE,113,4.5,7.6,28,0.00,,,0.00,WUHU216HW,2013-07-05 22:56:00,
2013-07-05 17:57:00,96.5,56.7,29.78,ENE,68,3.1,7.6,27,0.00,,,0.00,WUHU216HW,2013-07-05 22:57:00,
2013-07-05 18:01:00,96.8,60.3,29.78,SSE,158,4.9,9.8,30,0.00,,,0.00,WUHU216HW,2013-07-05 23:01:00,
2013-07-05 18:06:00,97.6,59.9,29.78,SSE,158,5.6,9.8,29,0.00,,,0.00,WUHU216HW,2013-07-05 23:06:00,
2013-07-05 18:11:00,98.1,58.2,29.77,South,180,4.7,8.5,27,0.00,,,0.00,WUHU216HW,2013-07-05 23:11:00,
2013-07-05 18:16:00,97.6,56.5,29.78,ESE,113,5.4,8.5,26,0.00,,,0.00,WUHU216HW,2013-07-05 23:16:00,
2013-07-05 18:21:00,97.4,57.5,29.78,ESE,113,2.5,7.2,27,0.00,,,0.00,WUHU216HW,2013-07-05 23:21:00,
2013-07-05 18:26:00,96.7,55.8,29.78,ESE,113,6.7,9.6,26,0.00,,,0.00,WUHU216HW,2013-07-05 23:26:00,
2013-07-05 18:31:00,95.4,55.8,29.77,East,90,5.6,9.6,27,0.00,,,0.00,WUHU216HW,2013-07-05 23:31:00,
2013-07-05 18:36:00,95.4,58.1,29.77,ESE,113,4.7,8.5,29,0.00,,,0.00,WUHU216HW,2013-07-05 23:36:00,
2013-07-05 18:41:00,95.6,58.1,29.78,ESE,113,5.6,7.2,29,0.00,,,0.00,WUHU216HW,2013-07-05 23:41:00,
2013-07-05 18:46:00,95.4,58.1,29.77,ESE,113,7.8,8.1,29,0.00,,,0.00,WUHU216HW,2013-07-05 23:46:00,
2013-07-05 18:51:00,94.7,57.4,29.77,ESE,113,9.8,13.4,29,0.00,,,0.00,WUHU216HW,2013-07-05 23:51:00,
2013-07-05 18:56:00,94.5,57.2,29.77,East,90,8.3,13.4,29,0.00,,,0.00,WUHU216HW,2013-07-05 23:56:00,
2013-07-05 19:01:00,94.5,57.2,29.77,SE,135,6.9,9.2,29,0.00,,,0.00,WUHU216HW,2013-07-06 00:01:00,
2013-07-05 19:06:00,94.3,58.2,29.78,ESE,113,6.3,9.4,30,0.00,,,0.00,WUHU216HW,2013-07-06 00:06:00,
2013-07-05 19:11:00,94.0,59.5,29.78,ESE,113,8.5,10.5,32,0.00,,,0.00,WUHU216HW,2013-07-06 00:11:00,
2013-07-05 19:16:00,93.6,60.0,29.78,East,90,6.9,10.5,33,0.00,,,0.00,WUHU216HW,2013-07-06 00:16:00,
2013-07-05 19:21:00,93.6,60.0,29.78,ESE,113,4.0,8.5,33,0.00,,,0.00,WUHU216HW,2013-07-06 00:21:00,
2013-07-05 19:26:00,93.4,60.7,29.78,ESE,113,5.1,10.3,34,0.00,,,0.00,WUHU216HW,2013-07-06 00:26:00,
2013-07-05 19:31:00,93.1,60.3,29.78,ESE,113,7.4,10.3,34,0.00,,,0.00,WUHU216HW,2013-07-06 00:31:00,
2013-07-05 19:36:00,92.5,60.7,29.78,ESE,113,8.7,9.6,35,0.00,,,0.00,WUHU216HW,2013-07-06 00:36:00,
2013-07-05 19:41:00,92.3,60.5,29.78,ESE,113,6.9,9.2,35,0.00,,,0.00,WUHU216HW,2013-07-06 00:41:00,
2013-07-05 19:46:00,92.2,60.4,29.78,East,90,7.6,9.2,35,0.00,,,0.00,WUHU216HW,2013-07-06 00:46:00,
2013-07-05 19:51:00,92.0,60.2,29.78,ESE,113,4.7,10.1,35,0.00,,,0.00,WUHU216HW,2013-07-06 00:51:00,
2013-07-05 19:52:00,92.0,60.2,29.78,ESE,113,4.7,10.1,35,0.00,,,0.00,WUHU216HW,2013-07-06 00:52:00,
2013-07-05 19:57:00,92.0,60.2,29.78,East,90,6.3,10.1,35,0.00,,,0.00,WUHU216HW,2013-07-06 00:57:00,
2013-07-05 20:02:00,91.6,60.0,29.79,ESE,113,6.9,8.1,35,0.00,,,0.00,WUHU216HW,2013-07-06 01:02:00,
2013-07-05 20:07:00,91.6,60.0,29.79,East,90,4.5,7.8,35,0.00,,,0.00,WUHU216HW,2013-07-06 01:07:00,
2013-07-05 20:12:00,91.1,60.2,29.79,ESE,113,4.5,7.6,36,0.00,,,0.00,WUHU216HW,2013-07-06 01:12:00,
2013-07-05 20:17:00,90.5,59.8,29.79,ESE,113,4.0,6.7,36,0.00,,,0.00,WUHU216HW,2013-07-06 01:17:00,
2013-07-05 20:22:00,90.2,59.4,29.79,East,90,3.8,6.3,36,0.00,,,0.00,WUHU216HW,2013-07-06 01:22:00,
2013-07-05 20:27:00,89.6,59.0,29.79,SE,135,3.6,6.5,36,0.00,,,0.00,WUHU216HW,2013-07-06 01:27:00,
2013-07-05 20:32:00,89.5,58.8,29.79,ESE,113,4.5,6.5,36,0.00,,,0.00,WUHU216HW,2013-07-06 01:32:00,
2013-07-05 20:37:00,88.9,58.3,29.79,ESE,113,4.3,5.4,36,0.00,,,0.00,WUHU216HW,2013-07-06 01:37:00,
2013-07-05 20:42:00,88.4,57.9,29.79,ESE,113,3.8,5.4,36,0.00,,,0.00,WUHU216HW,2013-07-06 01:42:00,
2013-07-05 20:47:00,88.0,59.2,29.79,ESE,113,2.7,4.7,38,0.00,,,0.00,WUHU216HW,2013-07-06 01:47:00,
2013-07-05 20:52:00,87.8,59.0,29.79,ESE,113,2.7,4.0,38,0.00,,,0.00,WUHU216HW,2013-07-06 01:52:00,
2013-07-05 20:57:00,87.7,58.9,29.80,SSE,158,1.8,3.6,38,0.00,,,0.00,WUHU216HW,2013-07-06 01:57:00,
2013-07-05 21:02:00,87.5,58.7,29.80,SE,135,2.5,3.6,38,0.00,,,0.00,WUHU216HW,2013-07-06 02:02:00,
2013-07-05 21:07:00,86.9,59.0,29.80,ESE,113,3.4,4.3,39,0.00,,,0.00,WUHU216HW,2013-07-06 02:07:00,
2013-07-05 21:12:00,86.4,57.8,29.80,ESE,113,3.6,4.9,38,0.00,,,0.00,WUHU216HW,2013-07-06 02:12:00,
2013-07-05 21:17:00,86.2,58.4,29.80,SE,135,4.3,4.9,39,0.00,,,0.00,WUHU216HW,2013-07-06 02:17:00,
2013-07-05 21:22:00,86.0,58.2,29.80,ESE,113,3.4,4.7,39,0.00,,,0.00,WUHU216HW,2013-07-06 02:22:00,
2013-07-05 21:27:00,85.7,58.7,29.80,ESE,113,5.6,5.6,40,0.00,,,0.00,WUHU216HW,2013-07-06 02:27:00,
2013-07-05 21:32:00,85.5,58.6,29.80,ESE,113,3.4,5.6,40,0.00,,,0.00,WUHU216HW,2013-07-06 02:32:00,
2013-07-05 21:37:00,85.3,58.4,29.80,ESE,113,3.4,5.6,40,0.00,,,0.00,WUHU216HW,2013-07-06 02:37:00,
2013-07-05 21:42:00,85.3,59.1,29.81,ESE,113,4.0,5.6,41,0.00,,,0.00,WUHU216HW,2013-07-06 02:42:00,
2013-07-05 21:43:00,85.1,58.9,29.81,ESE,113,4.3,5.6,41,0.00,,,0.00,WUHU216HW,2013-07-06 02:43:00,
2013-07-05 21:48:00,85.0,58.7,29.81,ESE,113,3.6,4.9,41,0.00,,,0.00,WUHU216HW,2013-07-06 02:48:00,
2013-07-05 21:53:00,84.8,58.5,29.81,SE,135,3.4,4.5,41,0.00,,,0.00,WUHU216HW,2013-07-06 02:53:00,
2013-07-05 21:58:00,84.6,59.1,29.81,ESE,113,3.4,4.5,42,0.00,,,0.00,WUHU216HW,2013-07-06 02:58:00,
2013-07-05 21:59:00,84.6,59.1,29.81,ESE,113,2.7,4.5,42,0.00,,,0.00,WUHU216HW,2013-07-06 02:59:00,
2013-07-05 22:04:00,84.2,58.7,29.82,ESE,113,3.1,3.8,42,0.00,,,0.00,WUHU216HW,2013-07-06 03:04:00,
2013-07-05 22:09:00,83.9,59.0,29.81,SE,135,4.3,4.3,43,0.00,,,0.00,WUHU216HW,2013-07-06 03:09:00,
2013-07-05 22:14:00,83.7,59.4,29.81,ESE,113,4.7,4.9,44,0.00,,,0.00,WUHU216HW,2013-07-06 03:14:00,
2013-07-05 22:19:00,83.5,59.2,29.81,ESE,113,4.3,4.9,44,0.00,,,0.00,WUHU216HW,2013-07-06 03:19:00,
2013-07-05 22:24:00,83.3,59.8,29.82,ESE,113,5.8,5.8,45,0.00,,,0.00,WUHU216HW,2013-07-06 03:24:00,
2013-07-05 22:29:00,83.2,59.6,29.82,ESE,113,4.0,6.0,45,0.00,,,0.00,WUHU216HW,2013-07-06 03:29:00,
2013-07-05 22:34:00,83.2,59.6,29.82,SE,135,4.0,6.0,45,0.00,,,0.00,WUHU216HW,2013-07-06 03:34:00,
2013-07-05 22:39:00,83.2,60.1,29.82,ESE,113,4.0,6.5,46,0.00,,,0.00,WUHU216HW,2013-07-06 03:39:00,
2013-07-05 22:44:00,83.2,59.6,29.82,East,90,4.5,6.9,45,0.00,,,0.00,WUHU216HW,2013-07-06 03:44:00,
2013-07-05 22:49:00,83.0,60.0,29.82,East,90,3.6,6.9,46,0.00,,,0.00,WUHU216HW,2013-07-06 03:49:00,
2013-07-05 22:54:00,82.8,59.9,29.82,ESE,113,4.3,7.2,46,0.00,,,0.00,WUHU216HW,2013-07-06 03:54:00,
2013-07-05 22:59:00,82.8,59.9,29.82,ESE,113,6.7,7.2,46,0.00,,,0.00,WUHU216HW,2013-07-06 03:59:00,
2013-07-05 23:01:00,82.8,60.4,29.83,SE,135,4.0,7.2,47,0.00,,,0.00,WUHU216HW,2013-07-06 04:01:00,
2013-07-05 23:02:00,82.8,60.4,29.83,ESE,113,5.4,7.2,47,0.00,,,0.00,WUHU216HW,2013-07-06 04:02:00,
2013-07-05 23:07:00,82.8,60.4,29.83,SE,135,3.4,6.7,47,0.00,,,0.00,WUHU216HW,2013-07-06 04:07:00,
2013-07-05 23:12:00,82.6,60.3,29.83,ESE,113,5.4,5.4,47,0.00,,,0.00,WUHU216HW,2013-07-06 04:12:00,
2013-07-05 23:17:00,82.4,60.1,29.83,ESE,113,4.3,5.4,47,0.00,,,0.00,WUHU216HW,2013-07-06 04:17:00,
2013-07-05 23:22:00,82.4,60.1,29.83,SE,135,4.3,6.3,47,0.00,,,0.00,WUHU216HW,2013-07-06 04:22:00,
2013-07-05 23:27:00,82.3,60.6,29.83,ESE,113,4.7,6.3,48,0.00,,,0.00,WUHU216HW,2013-07-06 04:27:00,
2013-07-05 23:32:00,81.9,60.9,29.84,SE,135,4.7,6.3,49,0.00,,,0.00,WUHU216HW,2013-07-06 04:32:00,
2013-07-05 23:37:00,81.7,60.7,29.84,ESE,113,4.9,5.8,49,0.00,,,0.00,WUHU216HW,2013-07-06 04:37:00,
2013-07-05 23:42:00,81.5,60.5,29.84,SSE,158,5.4,6.3,49,0.00,,,0.00,WUHU216HW,2013-07-06 04:42:00,
2013-07-05 23:47:00,81.4,60.3,29.84,ESE,113,3.8,6.3,49,0.00,,,0.00,WUHU216HW,2013-07-06 04:47:00,
2013-07-05 23:52:00,81.4,60.9,29.84,SE,135,4.3,6.0,50,0.00,,,0.00,WUHU216HW,2013-07-06 04:52:00,
2013-07-05 23:57:00,81.0,60.7,29.84,ESE,113,4.0,5.4,50,0.00,,,0.00,WUHU216HW,2013-07-06 04:57:00,